Weather reports worldwide

Advertisment
St. Mary's, United Kingdom (3803): temperature & dewpoint: 17.10.2020 00:00:00 - 23.10.2020 00:00:00 (BST)St. Mary's, United Kingdom (3803): temperature -20cm: 17.10.2020 00:00:00 - 23.10.2020 00:00:00 (BST)St. Mary's, United Kingdom (3803): wind speed & gusts: 17.10.2020 00:00:00 - 23.10.2020 00:00:00 (BST)St. Mary's, United Kingdom (3803): wind direction: 17.10.2020 00:00:00 - 23.10.2020 00:00:00 (BST)St. Mary's, United Kingdom (3803): reduced air pressure: 17.10.2020 00:00:00 - 23.10.2020 00:00:00 (BST)St. Mary's, United Kingdom (3803): visibility: 17.10.2020 00:00:00 - 23.10.2020 00:00:00 (BST)St. Mary's, United Kingdom (3803): precipitation: 17.10.2020 00:00:00 - 23.10.2020 00:00:00 (BST)
Date & Time tt [°C] td [°C] tt -20cm [°C] ff [km/h] ff [kn] fx [km/h] fx [kn] dd ppp [hPa] vv [km] rr [mm]
23.10.2020 00:00:00 10,8 9,2 - 9 5 - - NW 1009,3 45 0,0
22.10.2020 23:00:00 10,0 8,6 - 5 3 - - NW 1009,6 40 0,0
22.10.2020 22:00:00 10,1 8,3 - 8 4 - - N 1009,5 45 0,0
22.10.2020 21:00:00 10,4 8,7 - 9 5 - - NNW 1009,9 50 0,0
22.10.2020 20:00:00 10,9 8,4 - 5 3 - - N 1010,0 30 0,0
22.10.2020 19:00:00 10,9 8,1 - 8 4 - - NNE 1009,7 50 0,0
22.10.2020 18:00:00 11,4 8,2 - 8 4 - - NNE 1009,6 10 0,0
22.10.2020 17:00:00 11,7 8,3 - 8 4 - - NE 1009,5 10 0,0
22.10.2020 16:00:00 12,1 8,8 - 9 5 - - NE 1009,5 10 0,0
22.10.2020 15:00:00 12,0 8,8 - 9 5 - - NNE 1009,6 10 0,0
22.10.2020 14:00:00 11,9 9,2 - 11 6 - - NNE 1009,9 10 0,0
22.10.2020 13:00:00 11,7 9,7 - 13 7 - - NNE 1010,1 24 0,0
22.10.2020 12:00:00 11,1 9,8 - 11 6 - - N 1010,1 8 0,0
22.10.2020 11:00:00 11,0 10,4 - 15 8 - - NNE 1009,8 10 0,0
22.10.2020 10:00:00 10,9 10,4 13,2 13 7 - - N 1009,5 10 0,0
22.10.2020 09:00:00 10,3 9,6 - 13 7 - - N 1008,7 11 0,2
22.10.2020 08:00:00 10,5 9,7 - 11 6 - - N 1007,7 10 0,0
22.10.2020 07:00:00 10,8 10,4 - 15 8 - - N 1007,1 50 0,0
22.10.2020 06:00:00 11,0 10,6 - 15 8 - - N 1006,6 2,8 0,2
22.10.2020 05:00:00 11,5 11,1 - 11 6 - - WSW 1006,0 40 0,6
22.10.2020 04:00:00 11,9 11,4 - 13 7 - - SW 1005,8 7 0,6
22.10.2020 03:00:00 12,2 11,5 - 15 8 - - SW 1005,7 35 0,0
22.10.2020 02:00:00 12,0 11,5 - 13 7 - - WSW 1005,4 35 0,0
22.10.2020 01:00:00 11,6 11,2 - 16 9 - - SW 1005,0 26 0,0
22.10.2020 00:00:00 11,5 11,0 - 11 6 - - WSW 1004,6 30 0,0
21.10.2020 23:00:00 11,5 10,9 - 13 7 - - W 1004,1 9 0,0
21.10.2020 22:00:00 11,6 10,9 - 21 11 - - WNW 1003,2 25 0,0
21.10.2020 21:00:00 12,2 11,7 - 21 11 - - SW 1002,4 23 0,0
21.10.2020 20:00:00 11,9 11,4 - 22 12 50 27 W 1001,9 30 0,0
21.10.2020 19:00:00 12,5 12,1 - 26 14 - - WSW 1000,9 6 0,0
21.10.2020 18:00:00 12,8 12,6 - 22 12 48 26 WSW 999,9 30 0,4
21.10.2020 17:00:00 13,1 13,0 - 35 19 46 25 SW 998,9 1,6 2,2
21.10.2020 16:00:00 14,0 13,8 - 18 10 - - WSW 998,0 10 0,0
21.10.2020 15:00:00 13,9 13,7 - 24 13 - - WSW 997,0 27 0,4
21.10.2020 14:00:00 13,9 13,8 - 22 12 - - S 996,3 3,0 0,4
21.10.2020 13:00:00 13,8 13,7 - 24 13 - - S 996,0 8 1,6
21.10.2020 12:00:00 13,4 13,3 - 18 10 - - S 995,6 5 1,8
21.10.2020 11:00:00 13,2 13,1 - 8 4 - - SSE 994,9 8 0,6
21.10.2020 10:00:00 12,9 12,7 13,5 4 2 - - ENE 994,2 8 2,4
21.10.2020 09:00:00 13,3 13,1 - 5 3 - - SW 993,5 1,3 1,6
21.10.2020 08:00:00 13,2 13,0 - 5 3 - - ESE 992,4 1,5 0,8
21.10.2020 07:00:00 13,2 13,0 - 4 2 - - SE 992,2 2,1 0,4
21.10.2020 06:00:00 13,2 12,9 - 9 5 - - SSE 992,1 5 0,4
21.10.2020 05:00:00 13,2 12,9 - 11 6 - - S 992,2 5 0,4
21.10.2020 04:00:00 13,2 12,8 - 11 6 - - SSE 992,3 6 0,0
21.10.2020 03:00:00 13,4 12,9 - 21 11 - - SSE 993,2 10 0,0
21.10.2020 02:00:00 13,4 13,0 - 22 12 - - SSE 993,6 11 0,0
21.10.2020 01:00:00 13,3 12,9 - 21 11 - - SSE 993,8 7 0,0
21.10.2020 00:00:00 13,6 13,2 - 26 14 - - S 994,1 7 0,0
20.10.2020 23:00:00 13,6 13,2 - 24 13 - - SSE 994,0 7 0,0
20.10.2020 22:00:00 13,5 13,0 - 26 14 - - SSE 993,8 5 0,0
20.10.2020 21:00:00 13,8 13,2 - 24 13 - - S 994,3 8 0,0
20.10.2020 20:00:00 13,9 13,2 - 34 18 - - S 994,4 8 0,0
20.10.2020 19:00:00 13,9 13,2 - 28 15 - - S 994,4 5 0,0
20.10.2020 18:00:00 13,9 12,9 - 37 20 48 26 S 994,6 10 0,0
20.10.2020 17:00:00 14,2 12,8 - 42 23 59 32 S 994,9 10 0,0
20.10.2020 16:00:00 14,6 12,6 - 46 25 59 32 S 995,0 10 0,0
20.10.2020 15:00:00 15,3 13,0 - 48 26 61 33 S 994,8 10 0,0
20.10.2020 14:00:00 15,3 12,9 - 48 26 61 33 S 994,8 8 0,0
20.10.2020 13:00:00 15,5 12,7 - 54 29 68 37 S 995,0 9 0,0
20.10.2020 12:00:00 15,1 12,7 - 59 32 81 44 S 994,8 9 0,0
20.10.2020 11:00:00 14,3 12,2 - 55 30 76 41 S 994,2 8 0,0
20.10.2020 10:00:00 14,5 12,2 13,2 57 31 80 43 S 993,8 8 0,0
20.10.2020 09:00:00 14,6 11,9 - 65 35 78 42 S 993,3 7 0,0
20.10.2020 08:00:00 14,3 12,4 - 61 33 78 42 S 992,8 7 0,0
20.10.2020 07:00:00 14,3 12,6 - 63 34 85 46 S 992,8 8 0,0
20.10.2020 06:00:00 14,3 12,8 - 63 34 81 44 S 992,8 8 0,0
20.10.2020 05:00:00 14,2 13,3 - 57 31 70 38 S 993,0 7 0,0
20.10.2020 04:00:00 14,2 13,5 - 55 30 67 36 S 993,6 7 0,0
20.10.2020 03:00:00 14,0 13,6 - 46 25 59 32 S 994,3 5 0,0
20.10.2020 02:00:00 14,0 13,6 - 46 25 57 31 S 994,7 6 0,0
20.10.2020 01:00:00 14,1 13,8 - 48 26 57 31 S 995,3 6 0,0
20.10.2020 00:00:00 14,0 13,8 - 46 25 59 32 S 995,8 7 0,0
19.10.2020 23:00:00 13,7 13,5 - 48 26 61 33 S 996,0 7 1,0
19.10.2020 22:00:00 13,4 13,0 - 52 28 72 39 SSE 996,6 2,3 1,0
19.10.2020 21:00:00 13,5 12,7 - 54 29 67 36 SSE 997,5 7 0,2
19.10.2020 20:00:00 13,4 12,4 - 55 30 72 39 SSE 998,6 6 0,0
19.10.2020 19:00:00 13,8 11,6 - 59 32 74 40 SSE 999,6 10 0,0
19.10.2020 18:00:00 13,7 10,9 - 52 28 67 36 SSE 999,6 13 0,0
19.10.2020 17:00:00 13,8 10,3 - 42 23 63 34 SE 1001,5 10 0,0
19.10.2020 16:00:00 13,8 10,7 - 46 25 63 34 SE 1002,8 17 0,0
19.10.2020 15:00:00 13,8 11,2 - 41 22 55 30 SE 1004,6 10 0,0
19.10.2020 14:00:00 13,6 11,6 - 41 22 55 30 SE 1005,7 10 0,0
19.10.2020 13:00:00 13,4 11,7 - 44 24 55 30 SE 1007,4 10 0,0
19.10.2020 12:00:00 13,1 11,8 - 48 26 57 31 SSE 1008,9 10 0,0
19.10.2020 11:00:00 13,0 11,5 - 44 24 57 31 SSE 1009,9 10 0,0
19.10.2020 10:00:00 12,8 11,4 12,7 41 22 52 28 SSE 1010,5 10 0,0
19.10.2020 09:00:00 12,6 11,1 - 41 22 48 26 SSE 1011,7 16 0,0
19.10.2020 08:00:00 12,4 10,7 - 22 12 50 27 SSE 1012,3 10 0,0
19.10.2020 07:00:00 12,2 10,1 - 39 21 50 27 SSE 1012,8 25 0,0
19.10.2020 06:00:00 12,0 10,3 - 41 22 48 26 SSE 1014,0 20 0,0
19.10.2020 05:00:00 12,3 10,6 - 42 23 54 29 SSE 1014,6 15 0,0
19.10.2020 04:00:00 11,9 10,0 - 39 21 48 26 SSE 1015,2 25 0,0
19.10.2020 03:00:00 11,9 9,6 - 35 19 - - SSE 1016,9 24 0,0
19.10.2020 02:00:00 12,1 9,2 - 39 21 46 25 SSE 1018,0 30 0,0
19.10.2020 01:00:00 12,3 10,0 - 35 19 46 25 SE 1018,4 23 0,0
19.10.2020 00:00:00 12,4 10,3 - 39 21 46 25 SSE 1019,1 35 0,0
18.10.2020 23:00:00 12,4 10,3 - 35 19 - - SSE 1019,7 26 0,0
18.10.2020 22:00:00 12,5 10,3 - 37 20 - - SSE 1020,0 30 0,0
18.10.2020 21:00:00 12,3 10,1 - 31 17 - - SE 1020,3 26 0,0
18.10.2020 20:00:00 12,3 10,0 - 29 16 - - SE 1020,4 30 0,0
18.10.2020 19:00:00 12,3 10,0 - 31 17 - - SSE 1020,7 30 0,0
18.10.2020 18:00:00 12,5 10,2 - 29 16 - - SSE 1020,8 17 0,0
18.10.2020 17:00:00 12,8 10,3 - 29 16 - - SSE 1021,0 20 0,0
18.10.2020 16:00:00 13,5 10,8 - 31 17 - - SSE 1021,5 24 0,0
18.10.2020 15:00:00 14,2 11,1 - 34 18 - - SSE 1021,8 21 0,0
18.10.2020 14:00:00 13,4 10,5 - 31 17 - - SSE 1022,2 27 0,0
18.10.2020 13:00:00 13,9 10,8 - 29 16 - - SSE 1022,7 23 0,0
18.10.2020 12:00:00 13,3 10,4 - 31 17 46 25 SE 1023,0 20 0,0
18.10.2020 11:00:00 13,7 9,5 - 37 20 46 25 SE 1022,5 22 0,0
18.10.2020 10:00:00 13,1 9,1 12,5 34 18 - - SE 1022,5 19 0,0
18.10.2020 09:00:00 12,6 9,2 - 35 19 - - SE 1022,3 17 0,0
18.10.2020 08:00:00 12,7 9,0 - 31 17 - - SE 1022,0 25 0,0
18.10.2020 07:00:00 12,6 9,2 - 31 17 - - SE 1021,9 17 0,0
18.10.2020 06:00:00 12,6 9,3 - 29 16 - - SE 1021,7 16 0,0
18.10.2020 05:00:00 12,6 9,1 - 29 16 - - SE 1021,4 20 0,0
18.10.2020 04:00:00 12,6 8,6 - 29 16 - - SE 1021,3 22 0,0
18.10.2020 03:00:00 12,6 8,5 - 31 17 - - SE 1021,4 22 0,0
18.10.2020 02:00:00 12,7 8,4 - 31 17 - - SE 1021,4 27 0,0
18.10.2020 01:00:00 12,9 9,4 - 29 16 - - SE 1021,1 28 0,0
18.10.2020 00:00:00 12,8 9,0 - 34 18 - - SE 1021,0 30 0,0
17.10.2020 23:00:00 12,6 8,6 - 34 18 - - SE 1021,0 35 0,0
17.10.2020 22:00:00 12,5 8,5 - 29 16 - - SE 1020,8 29 0,0
17.10.2020 21:00:00 12,3 8,6 - 28 15 - - ESE 1020,5 26 0,0
17.10.2020 20:00:00 12,1 8,5 - 26 14 - - ESE 1020,4 22 0,0
17.10.2020 19:00:00 12,1 8,4 - 28 15 - - SE 1020,0 19 0,0
17.10.2020 18:00:00 11,9 7,3 - 28 15 - - SE 1019,6 30 0,0
17.10.2020 17:00:00 12,2 6,9 - 34 18 - - SE 1019,1 10 0,0
17.10.2020 16:00:00 12,4 6,4 - 31 17 - - ESE 1019,1 35 0,0
17.10.2020 15:00:00 13,4 7,2 - 29 16 - - SE 1019,3 10 0,0
17.10.2020 14:00:00 12,9 7,1 - 31 17 - - SE 1019,3 10 0,0
17.10.2020 13:00:00 13,3 6,9 - 34 18 - - SE 1019,5 10 0,0
17.10.2020 12:00:00 13,2 6,9 - 28 15 - - SE 1019,6 10 0,0
17.10.2020 11:00:00 12,8 6,4 - 29 16 - - SE 1019,5 40 0,0
17.10.2020 10:00:00 12,6 7,5 12,2 24 13 - - SE 1019,4 10 0,0
17.10.2020 09:00:00 12,3 8,2 - 24 13 - - SE 1019,3 45 0,0
17.10.2020 08:00:00 12,3 8,3 - 22 12 - - ESE 1019,0 10 0,0
17.10.2020 07:00:00 12,2 7,5 - 24 13 - - ESE 1019,0 45 0,0
17.10.2020 06:00:00 11,8 6,9 - 26 14 - - SE 1019,1 35 0,0
17.10.2020 05:00:00 11,9 7,8 - 28 15 - - SE 1019,2 45 0,0
17.10.2020 04:00:00 12,2 8,2 - 28 15 - - SE 1019,4 50 0,0
17.10.2020 03:00:00 12,3 8,8 - 22 12 - - ESE 1020,0 50 0,0
17.10.2020 02:00:00 11,9 8,4 - 22 12 - - ESE 1020,6 50 0,0
17.10.2020 01:00:00 11,7 8,2 - 24 13 - - ESE 1020,9 50 0,0
17.10.2020 00:00:00 11,8 7,8 - 26 14 - - E 1021,2 50 0,0

tt = temperature
td = dewpoint
tt -20cm = temperature -20cm
ff = wind speed
fx = gusts
dd = wind direction
ppp = reduced air pressure
vv = visibility
rr = precipitation

Next stations